Weather History for KGVL - October, 2012

Change the Weather History Date:

Saturday, October 20, 2012

  Actual Average Record
Temperature  
Mean Temperature 56 °F 60 °F  
Max Temperature 66 °F 70 °F 85 °F (1943)
Min Temperature 46 °F 50 °F 32 °F (1981)
Degree Days  
Heating Degree Days 9 5  
Month to date heating degree days 69  
Since 1 July heating degree days 82  
Cooling Degree Days 0 1  
Month to date cooling degree days 33  
Year to date cooling degree days 1574  
Growing Degree Days 6 (Base 50)    
Moisture  
Dew Point 41 °F    
Average Humidity 59    
Maximum Humidity 80    
Minimum Humidity 42    
Precipitation  
Precipitation 0.00 in 0.13 in 4.04 in (1950)
Month to date precipitation 2.87  
Year to date precipitation 43.80  
Sea Level Pressure  
Sea Level Pressure 29.89 in    
Wind  
Wind Speed 7 mph (West)    
Max Wind Speed 16 mph    
Max Gust Speed 22 mph    
Visibility 10 miles    
Events      
T = Trace of Precipitation, MM = Missing Value Source: NWS Daily Summary

Daily Weather History Graph

Daily Weather History Graph

Search for Another Location

Airport or City:

Trip Planner

Search our weather history database for the weather conditions in past years. The results will help you decide how hot, cold, wet, or windy it might be!

Date:

Astronomy

Oct. 20, 2012 Rise Set
Actual Time 7:45 AM EDT 6:54 PM EDT
Civil Twilight 7:19 AM EDT 7:19 PM EDT
Nautical Twilight 6:50 AM EDT 7:49 PM EDT
Astronomical Twilight 6:21 AM EDT 8:18 PM EDT
Moon 1:12 PM EDT (10/20) 11:46 PM EDT (10/20)
Length of Visible Light 12h 00m
Length of Day
11h 09m
Waxing Crescent, 34% of the Moon is Illuminated
Oct 20
Waxing Crescent
Oct 21
First Quarter
Oct 29
Full
Nov 6
Last Quarter
Nov 13
New

Hourly Weather History & Observations

Time (EDT) Temp. Windchill Dew Point Humidity Pressure Visibility Wind Dir Wind Speed Gust Speed Precip Events Conditions
12:53 AM 54.0 °F - 36.0 °F 51% 29.81 in 10.0 mi West 3.5 mph - N/A   Clear
1:53 AM 51.1 °F - 37.9 °F 61% 29.83 in 10.0 mi West 5.8 mph - N/A   Clear
2:53 AM 48.9 °F - 37.9 °F 66% 29.83 in 10.0 mi West 3.5 mph - N/A   Clear
3:53 AM 48.0 °F - 39.0 °F 71% 29.83 in 10.0 mi WSW 6.9 mph - N/A   Clear
4:53 AM 48.9 °F - 39.0 °F 69% 29.83 in 10.0 mi WSW 6.9 mph - N/A   Clear
5:53 AM 48.9 °F - 39.9 °F 71% 29.86 in 10.0 mi West 6.9 mph - N/A   Clear
6:53 AM 46.0 °F 43.1 °F 39.9 °F 79% 29.87 in 10.0 mi West 5.8 mph - N/A   Clear
7:53 AM 46.9 °F - 41.0 °F 80% 29.88 in 10.0 mi West 5.8 mph - N/A   Clear
8:53 AM 51.1 °F - 41.0 °F 68% 29.89 in 10.0 mi West 8.1 mph - N/A   Clear
9:53 AM 55.0 °F - 41.0 °F 59% 29.90 in 10.0 mi West 10.4 mph - N/A   Clear
10:53 AM 57.9 °F - 41.0 °F 53% 29.91 in 10.0 mi West 11.5 mph 17.3 mph N/A   Clear
11:53 AM 60.1 °F - 42.1 °F 51% 29.91 in 10.0 mi West 10.4 mph 16.1 mph N/A   Clear
12:53 PM 62.1 °F - 41.0 °F 46% 29.90 in 10.0 mi West 12.7 mph - N/A   Clear
1:53 PM 64.0 °F - 41.0 °F 43% 29.89 in 10.0 mi West 12.7 mph 20.7 mph N/A   Clear
2:53 PM 66.0 °F - 42.1 °F 42% 29.88 in 10.0 mi West 12.7 mph - N/A   Clear
3:53 PM 66.0 °F - 43.0 °F 43% 29.86 in 10.0 mi West 8.1 mph - N/A   Clear
4:53 PM 64.0 °F - 43.0 °F 46% 29.88 in 10.0 mi West 11.5 mph 19.6 mph N/A   Clear
5:53 PM 64.9 °F - 42.1 °F 43% 29.90 in 10.0 mi WNW 16.1 mph 21.9 mph N/A   Clear
6:53 PM 61.0 °F - 44.1 °F 54% 29.92 in 10.0 mi WNW 9.2 mph 17.3 mph N/A   Clear
7:53 PM 59.0 °F - 44.1 °F 58% 29.94 in 10.0 mi NW 6.9 mph - N/A   Clear
8:53 PM 57.9 °F - 44.1 °F 60% 29.96 in 10.0 mi WNW 6.9 mph - N/A   Clear
9:53 PM 57.0 °F - 44.1 °F 62% 29.97 in 10.0 mi NNW 5.8 mph - N/A   Clear
10:53 PM 54.0 °F - 44.1 °F 69% 29.98 in 10.0 mi NW 5.8 mph - N/A   Clear
11:53 PM 52.0 °F - 44.1 °F 74% 29.99 in 10.0 mi WNW 5.8 mph - N/A   Clear